Change the Weather History Date:

Tuesday, February 5, 2013

  Actual Average Record
Temperature  
Mean Temperature 20 °F -  
Max Temperature 27 °F 33 °F 61 °F (1991)
Min Temperature 12 °F 17 °F -14 °F (1996)
Degree Days  
Heating Degree Days 46    
Moisture  
Dew Point 4 °F    
Average Humidity 50    
Maximum Humidity 71    
Minimum Humidity 33    
Precipitation  
Precipitation 0.00 in - - ()
Sea Level Pressure  
Sea Level Pressure 29.97 in    
Wind  
Wind Speed 5 mph (WSW)    
Max Wind Speed 8 mph    
Max Gust Speed -    
Visibility 10 miles    
Events Snow    
Averages and records for this station are not official NWS values.
T = Trace of Precipitation, MM = Missing Value Source: NWS Daily Summary

Daily Weather History Graph

Daily Weather History Graph

Search for Another Location

Airport or City:

Trip Planner

Search our weather history database for the weather conditions in past years. The results will help you decide how hot, cold, wet, or windy it might be!

Date:

Astronomy

Feb. 05, 2013 Rise Set
Actual Time 6:53 AM EST 5:01 PM EST
Civil Twilight 6:23 AM EST 5:31 PM EST
Nautical Twilight 5:50 AM EST 6:05 PM EST
Astronomical Twilight 5:17 AM EST 6:38 PM EST
Moon 2:35 AM EST (2/5) 12:12 PM EST (2/5)
Length of Visible Light 11h 07m
Length of Day
10h 07m
Waning Crescent, 27% of the Moon is Illuminated
Feb 5
Waning Crescent
Feb 10
New
Feb 17
First Quarter
Feb 25
Full
Mar 4
Last Quarter

Hourly Weather History & Observations

Time (EST) Temp. Windchill Dew Point Humidity Pressure Visibility Wind Dir Wind Speed Gust Speed Precip Events Conditions
12:55 AM 18.3 °F 8.2 °F -0.2 °F 44% 29.92 in 10.0 mi WSW 8.1 mph - N/A   Clear
1:55 AM 16.3 °F 7.8 °F 0.3 °F 49% 29.93 in 10.0 mi SW 5.8 mph - N/A   Partly Cloudy
2:55 AM 16.2 °F 9.0 °F 0.7 °F 51% 29.93 in 10.0 mi SW 4.6 mph - N/A   Clear
3:55 AM 15.4 °F 9.8 °F 2.3 °F 56% 29.94 in 10.0 mi West 3.5 mph - N/A   Partly Cloudy
4:55 AM 15.4 °F 8.1 °F 2.5 °F 57% 29.96 in 10.0 mi West 4.6 mph - N/A   Partly Cloudy
5:55 AM 12.0 °F 2.7 °F 1.8 °F 64% 29.96 in 10.0 mi NW 5.8 mph - N/A   Partly Cloudy
6:55 AM 12.6 °F 6.5 °F 1.8 °F 62% 29.99 in 10.0 mi WSW 3.5 mph - N/A   Partly Cloudy
7:55 AM 13.1 °F 7.1 °F 3.6 °F 66% 30.01 in 10.0 mi South 3.5 mph - N/A   Scattered Clouds
8:55 AM 17.2 °F 11.9 °F 4.5 °F 57% 30.03 in 10.0 mi West 3.5 mph - N/A   Mostly Cloudy
9:55 AM 21.6 °F - 2.8 °F 44% 30.03 in 10.0 mi Calm Calm - N/A   Mostly Cloudy
10:55 AM 22.1 °F 14.7 °F 1.6 °F 41% 30.03 in 10.0 mi SSW 5.8 mph - N/A   Mostly Cloudy
11:55 AM 25.0 °F 18.1 °F 1.6 °F 36% 30.01 in 10.0 mi West 5.8 mph - N/A   Mostly Cloudy
12:55 PM 25.2 °F 19.5 °F 1.0 °F 35% 29.99 in 10.0 mi West 4.6 mph - N/A   Mostly Cloudy
1:55 PM 26.2 °F 19.6 °F 0.9 °F 34% 29.98 in 10.0 mi WNW 5.8 mph - N/A   Mostly Cloudy
2:55 PM 27.0 °F 21.6 °F 1.2 °F 33% 29.99 in 10.0 mi SW 4.6 mph - N/A   Mostly Cloudy
3:55 PM 26.2 °F - 1.8 °F 35% 29.97 in 10.0 mi WSW 2.3 mph - N/A   Mostly Cloudy
4:55 PM 24.3 °F 18.4 °F 2.7 °F 39% 29.96 in 10.0 mi ESE 4.6 mph - N/A   Mostly Cloudy
5:55 PM 23.5 °F 19.1 °F 4.5 °F 44% 29.97 in 10.0 mi ESE 3.5 mph - N/A   Overcast
6:55 PM 23.5 °F 19.1 °F 6.3 °F 48% 29.97 in 10.0 mi ESE 3.5 mph - N/A   Mostly Cloudy
7:55 PM 23.2 °F 18.7 °F 8.1 °F 52% 29.96 in 10.0 mi East 3.5 mph - N/A   Mostly Cloudy
8:55 PM 22.3 °F - 9.5 °F 58% 29.97 in 10.0 mi Calm Calm - N/A   Overcast
9:55 PM 23.9 °F - 12.0 °F 61% 29.97 in 10.0 mi Calm Calm - N/A   Overcast
10:55 PM 24.3 °F - 12.4 °F 61% 29.95 in 10.0 mi Calm Calm - N/A   Overcast
11:12 PM 24.8 °F - 12.2 °F 59% 29.95 in 8.0 mi Calm Calm - N/A Snow Light Snow
11:55 PM 22.5 °F 17.8 °F 14.2 °F 71% 29.95 in 8.0 mi WNW 3.5 mph - 0.00 in Snow Light Snow